TimeCST,TemperatureF,Dew PointF,Humidity,Sea Level PressureIn,VisibilityMPH,Wind Direction,Wind SpeedMPH,Gust SpeedMPH,PrecipitationIn,Events,Conditions,WindDirDegrees,DateUTC
12:15 AM,65.8,63.1,91,30.06,10.0,SE,9.2,-,N/A,,Scattered Clouds,130,2013-01-27 06:15:00
12:35 AM,65.8,63.5,92,30.06,10.0,SE,6.9,-,N/A,,Clear,130,2013-01-27 06:35:00
12:55 AM,65.5,63.5,93,30.06,10.0,SE,8.1,-,N/A,,Scattered Clouds,130,2013-01-27 06:55:00
1:15 AM,65.7,63.5,93,30.06,10.0,SE,6.9,-,N/A,,Scattered Clouds,130,2013-01-27 07:15:00
1:35 AM,65.5,63.5,93,30.04,10.0,SE,6.9,-,N/A,,Clear,130,2013-01-27 07:35:00
1:55 AM,65.5,63.7,94,30.03,10.0,SE,6.9,-,N/A,,Clear,130,2013-01-27 07:55:00
2:15 AM,65.5,63.7,94,30.03,10.0,SE,8.1,-,N/A,,Clear,130,2013-01-27 08:15:00
2:35 AM,65.7,64.0,94,30.03,10.0,SE,6.9,-,N/A,,Mostly Cloudy,130,2013-01-27 08:35:00
2:55 AM,65.7,64.0,94,30.03,10.0,ESE,5.8,-,N/A,,Overcast,120,2013-01-27 08:55:00
3:15 AM,66.2,64.4,94,30.03,10.0,SE,5.8,-,N/A,,Overcast,140,2013-01-27 09:15:00
3:35 AM,66.6,64.8,94,30.03,10.0,SE,6.9,-,N/A,,Overcast,140,2013-01-27 09:35:00
3:55 AM,67.3,65.3,93,30.03,10.0,SE,9.2,-,N/A,,Overcast,140,2013-01-27 09:55:00
4:15 AM,68.0,65.5,92,30.03,10.0,SE,9.2,-,N/A,,Overcast,140,2013-01-27 10:15:00
4:35 AM,68.0,65.7,92,30.02,10.0,SSE,9.2,-,N/A,,Overcast,150,2013-01-27 10:35:00
4:55 AM,68.0,65.7,92,30.02,10.0,SE,8.1,-,N/A,,Overcast,140,2013-01-27 10:55:00
5:15 AM,68.0,65.7,92,30.02,10.0,SE,6.9,-,N/A,,Overcast,140,2013-01-27 11:15:00
5:35 AM,67.6,65.5,93,30.03,10.0,SE,8.1,-,N/A,,Overcast,140,2013-01-27 11:35:00
6:15 AM,67.3,65.5,94,30.03,10.0,SE,6.9,-,N/A,,Overcast,130,2013-01-27 12:15:00
6:35 AM,67.1,65.3,94,30.03,10.0,SE,5.8,-,N/A,,Overcast,140,2013-01-27 12:35:00
6:55 AM,66.6,64.9,95,30.04,7.0,ESE,4.6,-,N/A,,Mostly Cloudy,120,2013-01-27 12:55:00
7:15 AM,66.4,64.9,95,30.04,7.0,ESE,3.5,-,N/A,,Mostly Cloudy,120,2013-01-27 13:15:00
7:35 AM,66.2,64.8,95,30.04,5.0,East,4.6,-,N/A,,Overcast,100,2013-01-27 13:35:00
7:55 AM,66.6,65.1,95,30.04,7.0,East,5.8,-,N/A,,Overcast,100,2013-01-27 13:55:00
8:15 AM,66.7,65.3,95,30.04,7.0,ESE,5.8,-,N/A,,Overcast,110,2013-01-27 14:15:00
8:35 AM,67.8,65.7,93,30.05,10.0,SE,5.8,-,N/A,,Overcast,130,2013-01-27 14:35:00
8:55 AM,68.9,66.2,91,30.05,10.0,SE,6.9,-,N/A,,Overcast,130,2013-01-27 14:55:00
9:15 AM,69.8,66.4,89,30.05,10.0,ESE,5.8,-,N/A,,Overcast,120,2013-01-27 15:15:00
9:35 AM,70.3,66.7,88,30.06,10.0,SE,5.8,-,N/A,,Overcast,130,2013-01-27 15:35:00
9:55 AM,71.8,67.3,86,30.06,10.0,SE,6.9,-,N/A,,Overcast,140,2013-01-27 15:55:00
10:15 AM,72.5,67.5,84,30.06,10.0,SE,10.4,-,N/A,,Overcast,140,2013-01-27 16:15:00
10:35 AM,72.9,67.3,83,30.05,7.0,SE,12.7,19.6,N/A,,Overcast,140,2013-01-27 16:35:00
10:55 AM,73.8,67.5,81,30.05,10.0,SE,12.7,19.6,N/A,,Overcast,140,2013-01-27 16:55:00
11:15 AM,75.0,67.6,78,30.05,7.0,SSE,13.8,19.6,N/A,,Overcast,150,2013-01-27 17:15:00
11:35 AM,74.5,67.8,80,30.05,10.0,SSE,11.5,-,N/A,,Overcast,160,2013-01-27 17:35:00
11:55 AM,76.6,67.5,73,30.03,10.0,SSE,17.3,20.7,N/A,,Overcast,160,2013-01-27 17:55:00
12:15 PM,77.0,67.5,72,30.02,10.0,SSE,12.7,-,N/A,,Overcast,160,2013-01-27 18:15:00
12:35 PM,80.1,66.2,62,30.01,10.0,SSE,17.3,24.2,N/A,,Overcast,160,2013-01-27 18:35:00
12:55 PM,79.5,66.2,64,30.00,10.0,SSE,17.3,24.2,N/A,,Overcast,150,2013-01-27 18:55:00
1:15 PM,80.8,65.7,60,29.98,7.0,SSE,15.0,23.0,N/A,,Overcast,150,2013-01-27 19:15:00
1:35 PM,80.6,64.6,58,29.97,10.0,SSE,17.3,27.6,N/A,,Overcast,160,2013-01-27 19:35:00
1:55 PM,80.8,65.3,59,29.96,7.0,SSE,15.0,21.9,N/A,,Overcast,150,2013-01-27 19:55:00
2:15 PM,81.3,63.5,55,29.95,10.0,SSE,17.3,26.5,N/A,,Overcast,150,2013-01-27 20:15:00
2:35 PM,81.9,63.1,53,29.94,10.0,SSE,18.4,26.5,N/A,,Overcast,160,2013-01-27 20:35:00
2:55 PM,82.0,62.4,51,29.93,10.0,SSE,19.6,26.5,N/A,,Overcast,160,2013-01-27 20:55:00
3:15 PM,82.9,62.8,50,29.93,10.0,SSE,19.6,29.9,N/A,,Mostly Cloudy,160,2013-01-27 21:15:00
3:35 PM,83.3,62.8,50,29.93,7.0,SSE,17.3,27.6,N/A,,Mostly Cloudy,160,2013-01-27 21:35:00
3:55 PM,83.1,63.5,51,29.93,10.0,SE,20.7,25.3,N/A,,Mostly Cloudy,140,2013-01-27 21:55:00
4:15 PM,82.8,63.5,52,29.93,10.0,SSE,18.4,26.5,N/A,,Overcast,160,2013-01-27 22:15:00
4:35 PM,82.9,63.7,52,29.93,10.0,SSE,17.3,24.2,N/A,,Mostly Cloudy,150,2013-01-27 22:35:00
4:55 PM,82.4,63.5,53,29.93,10.0,SSE,19.6,26.5,N/A,,Overcast,160,2013-01-27 22:55:00
5:15 PM,81.9,64.4,55,29.93,10.0,SE,18.4,26.5,N/A,,Mostly Cloudy,140,2013-01-27 23:15:00
5:35 PM,81.7,64.6,56,29.94,10.0,SSE,17.3,26.5,N/A,,Scattered Clouds,150,2013-01-27 23:35:00
5:55 PM,81.3,65.3,58,29.94,7.0,SE,11.5,25.3,N/A,,Overcast,130,2013-01-27 23:55:00
6:15 PM,78.4,68.7,72,29.95,10.0,SE,13.8,-,N/A,,Mostly Cloudy,130,2013-01-28 00:15:00
6:35 PM,76.8,69.1,77,29.95,10.0,ESE,9.2,-,N/A,,Mostly Cloudy,120,2013-01-28 00:35:00
6:55 PM,76.1,69.1,79,29.96,10.0,ESE,12.7,-,N/A,,Mostly Cloudy,120,2013-01-28 00:55:00
7:15 PM,75.4,69.3,81,29.97,10.0,ESE,9.2,-,N/A,,Overcast,120,2013-01-28 01:15:00
7:35 PM,75.2,69.3,82,29.97,10.0,ESE,9.2,-,N/A,,Overcast,120,2013-01-28 01:35:00
7:55 PM,74.5,69.1,83,29.98,10.0,ESE,10.4,-,N/A,,Overcast,120,2013-01-28 01:55:00
8:15 PM,74.3,69.1,84,29.99,10.0,SE,11.5,17.3,N/A,,Overcast,130,2013-01-28 02:15:00
8:35 PM,73.8,68.9,85,29.99,10.0,ESE,8.1,-,N/A,,Overcast,120,2013-01-28 02:35:00
8:55 PM,74.3,68.9,83,30.00,7.0,SE,13.8,18.4,N/A,,Overcast,140,2013-01-28 02:55:00
9:15 PM,74.7,68.9,82,29.99,10.0,SE,17.3,-,N/A,,Overcast,140,2013-01-28 03:15:00
9:35 PM,74.7,68.7,82,29.99,10.0,SE,16.1,24.2,N/A,,Overcast,130,2013-01-28 03:35:00
9:55 PM,74.5,68.5,82,30.00,7.0,SE,16.1,23.0,N/A,,Overcast,140,2013-01-28 03:55:00
10:15 PM,74.3,68.5,82,30.00,7.0,SE,16.1,21.9,N/A,,Overcast,140,2013-01-28 04:15:00
10:35 PM,74.3,68.9,83,30.01,7.0,SE,11.5,-,N/A,,Overcast,140,2013-01-28 04:35:00
10:55 PM,73.9,68.9,84,30.01,7.0,SSE,13.8,18.4,N/A,,Overcast,150,2013-01-28 04:55:00
11:15 PM,73.9,68.9,84,30.01,10.0,SSE,13.8,-,N/A,,Overcast,150,2013-01-28 05:15:00
11:35 PM,73.9,68.9,84,30.01,7.0,SE,13.8,18.4,N/A,,Overcast,140,2013-01-28 05:35:00
11:55 PM,73.9,68.9,84,30.01,7.0,SSE,10.4,19.6,N/A,,Overcast,150,2013-01-28 05:55:00